Hourly Data Report for February 04, 2008

All times are specified in Local Standard Time (LST). Add 1 hour to adjust for Daylight Saving Time where and when it is observed.

Metadata including Station Name, Province, Latitude, Longitude, Elevation, Climate ID, WMO ID, TC ID
TORONTO LESTER B. PEARSON INT'L A
ONTARIO
Latitude: 43°40'38.000" N Longitude: 79°37'50.000" W Elevation: 173.40 m
Climate ID: 6158733 WMO ID: 71624 TC ID: YYZ
Hourly Data Report for February 4, 2008
Temp Definition
°C

Dew Point Temp Definition
°C

Rel Hum Definition
%

Wind Dir Definition
10's deg
Wind Spd Definition
km/h

Visibility Definition
km

Stn Press Definition
kPa

Hmdx Definition

Wind Chill Definition

Weather Definition

TIME
00:00 -0.7 -4.4 76   0 24.1 100.35 Mostly Cloudy
01:00 -0.7 -4.7 74   0 24.1 100.36 Cloudy
02:00 -0.9 -4.4 77   0 24.1 100.37 Cloudy
03:00 -1.5 -4.8 78   0 24.1 100.31 Cloudy
04:00 -1.0 -4.2 79   0 16.1 100.34 Cloudy
05:00 -0.7 -3.3 83 6 9 6.4 100.26 -4 Snow Showers
06:00 -0.7 -2.8 86 10 9 4.0 100.22 -4 Snow
07:00 -0.3 -2.2 87 11 17 8.0 100.22 -5 Snow
08:00 0.2 -2.3 83 11 20 14.5 100.21 Snow
09:00 0.6 -1.7 85 10 13 11.3 100.23 Snow
10:00 1.1 -1.9 80 9 17 14.5 100.19 Cloudy
11:00 1.7 -2.0 76 9 20 19.3 100.14 Mostly Cloudy
12:00 2.1 -1.8 75 8 32 19.3 100.00 Mostly Cloudy
13:00 2.4 -1.7 74 9 24 19.3 99.91 Mostly Cloudy
14:00 2.4 -1.4 76 9 20 16.1 99.82 Cloudy
15:00 2.1 -1.1 79 10 24 12.9 99.78 Cloudy
16:00 2.0 -0.9 81 8 20 12.9 99.85 Cloudy
17:00 1.7 -0.9 83 10 28 8.0 99.68 Haze
18:00 1.6 -0.6 85 9 26 9.7 99.68 Haze
19:00 1.9 -0.4 85 9 19 9.7 99.65 Haze
20:00 2.0 -0.3 85 9 20 9.7 99.49 Haze
21:00 2.0 0.0 87 9 17 6.4 99.35 Rain Showers
22:00 2.0 0.5 90 7 11 6.4 99.30 Thunderstorms,Rain
23:00 2.2 1.0 92 8 9 4.8 99.14 Rain,Fog

Notes on Data Quality.

Legend
  • E = Estimated
  • M = Missing
  • NA = Not Available
  • ‡ = Partner data that is not subject to review by the National Climate Archives